Tracking 31027 objects as of 19-Jul-2025
HD Live streaming from Space Station
objects crossing your sky now

THOR ABLESTAR R/B

Track THOR ABLESTAR R/B now!
10-day predictions


NORAD ID: 893
Int'l Code: 1964-063A
Perigee: 1,036.0 km
Apogee: 1,076.7 km
Inclination: 90.2 °
Period: 106.2 minutes
Semi major axis: 7427 km
RCS: 4.0212 m2 (large)
Launch date: October 6, 1964
Source: United States (US)
Launch site: AIR FORCE WESTERN TEST RANGE (AFWTR)

Note: This is a ROCKET BODY
Your satellite tracking list
CREW DRAGON DEMO-2 DEB
Track 1 satellite(s)




NASA's NSSDC Master Catalog

Two Line Element Set (TLE):
1 00893U 64063A   25199.18531171  .00000007  00000-0 -26015-5 0  9999
2 00893  90.2242  67.4612 0027379 116.7186 355.7707 13.56291047  6700
Source of the keplerian elements: AFSPC